Notices

What's New in latest Release from April 7th, 2021:

- Updated Glossary, including Speed of Maximum Gust, and Total Hourly Precipitation

- Updated national and regional climate services offices contacts and prices information

- Addition of station inventory lists for 1981-2010, 1971-2000, and 1961-1990 Normals.

If you haven't already, please take our survey and provide feedback about our website: https://eccc.sondage-survey.ca/f/LanguageSelection.aspx?s=442ca660-fcf1-47c0-95a9-59707d6fd709

Hourly Data Report for April 30, 2019

MIRAMICHI RCS
NEW BRUNSWICK
Current Station Operator: ECCC - MSC

47°00'34.000" N
65°27'54.000" W
33.00 m
8100989
71744
ACQ

Download Data

Hourly Data (April 2019)
Hourly Data Report for April 30, 2019
TIME
LST
Temp Definition
°C
Dew Point Definition
°C
Rel Hum Definition
%
Precip. Amount Definition
mm

Wind Dir Definition
10's deg

Wind Spd Definition
km/h
Visibility Definition
km
Stn Press Definition
kPa
Hmdx Definition


Wind Chill Definition


Weather Definition


00:00 -1.1 -8.1 59 0.0 23 10   101.48   -5 LegendNANA
01:00 0.1 -8.1 54 0.0 26 10   101.49     LegendNANA
02:00 -0.6 -7.8 58 0.0 26 8   101.44   -3 LegendNANA
03:00 -0.4 -8.2 56 0.0 27 10   101.43   -4 LegendNANA
04:00 -0.3 -8.8 52 0.0 25 13   101.39   -4 LegendNANA
05:00 0.0 -9.0 50 0.0 26 12   101.44   -4 LegendNANA
06:00 0.6 -8.7 50 0.0 26 11   101.46     LegendNANA
07:00 1.3 -9.4 45 0.0 26 17   101.47     LegendNANA
08:00 1.7 -10.5 40 0.0 27 17   101.44     LegendNANA
09:00 2.7 -10.9 36 0.0 27 24   101.42     LegendNANA
10:00 4.5 -11.5 30 0.0 27 20   101.36     LegendNANA
11:00 6.2 -12.8 24 0.0 27 22   101.28     LegendNANA
12:00 7.9 -14.0 19 0.0 30 22   101.22     LegendNANA
13:00 9.0 -13.3 19 0.0 29 21   101.17     LegendNANA
14:00 9.9 -12.5 19 0.0 28 26   101.14     LegendNANA
15:00 10.3 -13.3 18 0.0 30 24   101.09     LegendNANA
16:00 9.6 -13.9 18 0.0 31 24   101.12     LegendNANA
17:00 8.7 -15.3 17 0.0 31 24   101.21     LegendNANA
18:00 8.0 -14.4 19 0.0 30 25   101.28     LegendNANA
19:00 6.8 -13.9 21 0.0 30 24   101.41     LegendNANA
20:00 5.4 -13.9 23 0.0 30 15   101.51     LegendNANA
21:00 4.0 -12.4 29 0.0 31 9   101.63     LegendNANA
22:00 2.2 -10.9 37 0.0 29 11   101.68     LegendNANA
23:00 2.8 -11.8 33 0.0 31 15   101.67     LegendNANA

Notes on Data Quality.

Legend

  • E = Estimated
  • M = Missing
  • NA = Not Available*
  • [empty] = Indicates an unobserved value
Date modified: